TVF8704 LFLL-DTMB

Flight info

Callsign TVF8704
Flight time 1h 41m
Altitude 35000
Route ROMAM T43 BEPER DCT RETNO DCT KOLON DCT LOKDU DCT PELOS DCT IPROM DCT PIRIX DCT OSMAR UA725 TANIT UM731 TUC UM978 DIDON G727 ATLEL
Aircraft B738/M-SDE2E3FGIJ1LORVWXY/HLB1

Departure

Time 2026-04-29 14:56
Airport Lyon Saint-Exupéry Airport (LFLL)

Arrival

Time 2026-04-29 16:37
Airport Monastir Habib Bourguiba International Airport (DTMB)
Time Latitude Longitude Altitude Speed Heading
2026-04-29 14:41 45.71605 5.08211 801 ft 0 kts 195°
2026-04-29 14:48 45.71621 5.08217 801 ft 4 kts 195°
2026-04-29 14:48 45.71646 5.08227 800 ft 3 kts 195°
2026-04-29 14:48 45.71667 5.08233 800 ft 4 kts 168°
2026-04-29 14:48 45.71682 5.08216 800 ft 3 kts 104°
2026-04-29 14:49 45.71686 5.08192 799 ft 0 kts 105°
2026-04-29 14:50 45.71683 5.08212 800 ft 5 kts 104°
2026-04-29 14:51 45.71678 5.08240 800 ft 7 kts 104°
2026-04-29 14:51 45.71676 5.08284 800 ft 11 kts 88°
2026-04-29 14:51 45.71679 5.08350 799 ft 16 kts 85°
2026-04-29 14:51 45.71685 5.08435 800 ft 18 kts 85°
2026-04-29 14:52 45.71660 5.08492 801 ft 13 kts 150°
2026-04-29 14:52 45.71631 5.08501 801 ft 13 kts 173°
2026-04-29 14:52 45.71586 5.08507 802 ft 13 kts 175°
2026-04-29 14:52 45.71536 5.08513 802 ft 16 kts 175°
2026-04-29 14:53 45.71474 5.08520 804 ft 20 kts 175°
2026-04-29 14:53 45.71370 5.08533 810 ft 25 kts 175°
2026-04-29 14:53 45.71309 5.08540 812 ft 28 kts 175°
2026-04-29 14:53 45.71204 5.08553 813 ft 31 kts 175°
2026-04-29 14:54 45.71134 5.08601 816 ft 20 kts 130°
2026-04-29 14:54 45.71108 5.08692 815 ft 20 kts 105°
2026-04-29 14:54 45.71093 5.08774 818 ft 19 kts 104°
2026-04-29 14:54 45.71076 5.08908 819 ft 12 kts 88°
2026-04-29 14:55 45.71086 5.09010 820 ft 8 kts 69°
2026-04-29 14:55 45.71125 5.09028 819 ft 5 kts 355°
2026-04-29 14:55 45.71274 5.09009 814 ft 54 kts 355°
2026-04-29 14:55 45.71889 5.08934 810 ft 121 kts 354°
2026-04-29 14:56 45.72925 5.08805 860 ft 170 kts 358°
2026-04-29 14:56 45.74150 5.08662 1464 ft 181 kts 359°
2026-04-29 14:56 45.75409 5.08519 2297 ft 180 kts 358°
2026-04-29 14:56 45.76694 5.08369 2927 ft 197 kts 358°
2026-04-29 14:57 45.78154 5.08191 3177 ft 222 kts 357°
2026-04-29 14:57 45.79766 5.07986 3429 ft 241 kts 357°
2026-04-29 14:57 45.81461 5.07775 3987 ft 246 kts 358°
2026-04-29 14:57 45.83126 5.08241 4557 ft 248 kts 33°
2026-04-29 14:58 45.84308 5.09957 5287 ft 247 kts 63°
2026-04-29 14:58 45.84742 5.12309 6033 ft 246 kts 92°
2026-04-29 14:58 45.84317 5.14696 6679 ft 253 kts 121°
2026-04-29 14:58 45.83106 5.16497 7399 ft 254 kts 150°
2026-04-29 14:59 45.81453 5.17367 8157 ft 255 kts 168°
2026-04-29 14:59 45.79706 5.17877 8880 ft 259 kts 169°
2026-04-29 14:59 45.77942 5.18378 9683 ft 259 kts 169°
2026-04-29 14:59 45.76158 5.18905 10330 ft 264 kts 169°
2026-04-29 15:00 45.74350 5.19454 10999 ft 266 kts 169°
2026-04-29 15:00 45.72533 5.20012 11705 ft 268 kts 168°
2026-04-29 15:00 45.70668 5.20384 12261 ft 276 kts 179°
2026-04-29 15:00 45.68672 5.20329 12443 ft 298 kts 184°
2026-04-29 15:01 45.66521 5.20143 12627 ft 321 kts 184°
2026-04-29 15:01 45.64222 5.19928 12802 ft 341 kts 184°
2026-04-29 15:01 45.61778 5.19713 12952 ft 362 kts 184°
2026-04-29 15:01 45.59203 5.19505 13213 ft 376 kts 184°
2026-04-29 15:02 45.56605 5.19312 13796 ft 381 kts 183°
2026-04-29 15:02 45.53947 5.19127 14397 ft 384 kts 183°
2026-04-29 15:02 45.51266 5.18946 14969 ft 387 kts 183°
2026-04-29 15:02 45.48553 5.18768 15533 ft 391 kts 183°
2026-04-29 15:03 45.45813 5.18590 16022 ft 397 kts 183°
2026-04-29 15:03 45.43038 5.18410 16546 ft 401 kts 183°
2026-04-29 15:03 45.40241 5.18230 17094 ft 404 kts 183°
2026-04-29 15:03 45.37413 5.18047 17626 ft 408 kts 183°
2026-04-29 15:04 45.34562 5.17862 18127 ft 412 kts 183°
2026-04-29 15:04 45.31686 5.17676 18583 ft 416 kts 183°
2026-04-29 15:04 45.28784 5.17489 19055 ft 418 kts 183°
2026-04-29 15:04 45.25907 5.17303 19533 ft 421 kts 184°
2026-04-29 15:05 45.22974 5.17114 20003 ft 423 kts 184°
2026-04-29 15:05 45.20021 5.16924 20459 ft 426 kts 184°
2026-04-29 15:05 45.17045 5.16733 20896 ft 429 kts 184°
2026-04-29 15:05 45.14059 5.16541 21328 ft 431 kts 184°
2026-04-29 15:06 45.11052 5.16348 21744 ft 434 kts 184°
2026-04-29 15:06 45.08020 5.16334 22157 ft 438 kts 178°
2026-04-29 15:06 45.04973 5.16688 22566 ft 441 kts 175°
2026-04-29 15:06 45.01911 5.17155 22985 ft 443 kts 175°
2026-04-29 15:07 44.98822 5.17602 23372 ft 446 kts 176°
2026-04-29 15:07 44.95757 5.17987 23721 ft 449 kts 176°
2026-04-29 15:07 44.92632 5.18344 24054 ft 451 kts 177°
2026-04-29 15:07 44.89497 5.18687 24394 ft 452 kts 177°
2026-04-29 15:08 44.86350 5.19028 24718 ft 454 kts 177°
2026-04-29 15:08 44.83195 5.19367 25058 ft 456 kts 177°
2026-04-29 15:08 44.80026 5.19715 25377 ft 458 kts 177°
2026-04-29 15:08 44.76838 5.20068 25672 ft 460 kts 177°
2026-04-29 15:09 44.73637 5.20421 25960 ft 462 kts 177°
2026-04-29 15:09 44.70419 5.20775 26255 ft 464 kts 177°
2026-04-29 15:09 44.67197 5.21246 26537 ft 467 kts 170°
2026-04-29 15:09 44.64104 5.22707 26769 ft 474 kts 154°
2026-04-29 15:10 44.61354 5.25275 27079 ft 478 kts 140°
2026-04-29 15:10 44.59068 5.28669 27382 ft 480 kts 131°
2026-04-29 15:10 44.56901 5.32250 27630 ft 483 kts 131°
2026-04-29 15:10 44.54745 5.35802 27835 ft 486 kts 131°
2026-04-29 15:11 44.52532 5.39400 28101 ft 487 kts 132°
2026-04-29 15:11 44.50302 5.42973 28488 ft 486 kts 132°
2026-04-29 15:11 44.48064 5.46525 28931 ft 484 kts 133°
2026-04-29 15:11 44.45836 5.50044 29381 ft 482 kts 133°
2026-04-29 15:12 44.43612 5.53551 29755 ft 481 kts 133°
2026-04-29 15:12 44.42140 5.55873 29948 ft 482 kts 133°
2026-04-29 15:12 44.39163 5.60565 30327 ft 482 kts 133°
2026-04-29 15:12 44.37014 5.64161 30656 ft 482 kts 127°
2026-04-29 15:13 44.35081 5.67989 30980 ft 481 kts 125°
2026-04-29 15:13 44.33226 5.71869 31286 ft 480 kts 124°
2026-04-29 15:13 44.31384 5.75782 31468 ft 482 kts 124°
2026-04-29 15:13 44.29534 5.79699 31702 ft 483 kts 124°
2026-04-29 15:14 44.27672 5.83600 32009 ft 482 kts 124°
2026-04-29 15:14 44.25811 5.87462 32408 ft 478 kts 124°
2026-04-29 15:14 44.23954 5.91281 32835 ft 474 kts 124°
2026-04-29 15:14 44.22099 5.95078 33092 ft 474 kts 124°
2026-04-29 15:15 44.20235 5.98882 33277 ft 476 kts 124°
2026-04-29 15:15 44.18362 6.02696 33508 ft 476 kts 124°
2026-04-29 15:15 44.16493 6.06498 33817 ft 475 kts 124°
2026-04-29 15:15 44.14630 6.10285 34117 ft 473 kts 124°
2026-04-29 15:16 44.12764 6.14073 34247 ft 475 kts 124°
2026-04-29 15:16 44.10913 6.17829 34395 ft 477 kts 125°
2026-04-29 15:16 44.09038 6.21629 34605 ft 476 kts 125°
2026-04-29 15:16 44.07166 6.25417 34867 ft 474 kts 125°
2026-04-29 15:17 44.05301 6.29186 35034 ft 473 kts 125°
2026-04-29 15:17 44.01550 6.36753 35014 ft 474 kts 125°
2026-04-29 15:18 43.97806 6.44285 35034 ft 473 kts 125°
2026-04-29 15:18 43.94072 6.51780 35028 ft 472 kts 125°
2026-04-29 15:19 43.90352 6.59226 35037 ft 471 kts 125°
2026-04-29 15:19 43.86607 6.66704 35029 ft 472 kts 125°
2026-04-29 15:20 43.82854 6.74179 35020 ft 472 kts 125°
2026-04-29 15:20 43.79096 6.81647 35026 ft 473 kts 125°
2026-04-29 15:21 43.75330 6.89110 35032 ft 473 kts 126°
2026-04-29 15:21 43.70782 6.95632 35034 ft 471 kts 144°
2026-04-29 15:22 43.65091 7.00038 35034 ft 468 kts 157°
2026-04-29 15:22 43.59168 7.03708 35021 ft 469 kts 157°
2026-04-29 15:23 43.53215 7.07411 35020 ft 469 kts 157°
2026-04-29 15:23 43.47271 7.11159 35021 ft 469 kts 156°
2026-04-29 15:24 43.41337 7.14919 35016 ft 469 kts 156°
2026-04-29 15:24 43.35407 7.18672 35014 ft 468 kts 156°
2026-04-29 15:25 43.29514 7.22391 35006 ft 468 kts 156°
2026-04-29 15:25 43.23601 7.26114 35004 ft 468 kts 156°
2026-04-29 15:26 43.17688 7.29829 34985 ft 467 kts 157°
2026-04-29 15:26 43.11770 7.33538 34996 ft 467 kts 157°
2026-04-29 15:27 43.05860 7.37235 34994 ft 467 kts 157°
2026-04-29 15:27 42.99950 7.40923 34996 ft 467 kts 156°
2026-04-29 15:28 42.94075 7.44582 34985 ft 466 kts 157°
2026-04-29 15:28 42.88173 7.48251 34989 ft 466 kts 157°
2026-04-29 15:29 42.82259 7.51919 34992 ft 465 kts 156°
2026-04-29 15:30 42.70512 7.59182 34996 ft 464 kts 157°
2026-04-29 15:30 42.64631 7.62807 34984 ft 463 kts 157°
2026-04-29 15:31 42.58766 7.66414 34987 ft 462 kts 157°
2026-04-29 15:31 42.52907 7.70010 34985 ft 462 kts 157°
2026-04-29 15:32 42.47059 7.73592 34989 ft 461 kts 157°
2026-04-29 15:32 42.41219 7.77162 34981 ft 461 kts 157°
2026-04-29 15:33 42.35405 7.80709 34980 ft 461 kts 157°
2026-04-29 15:33 42.29563 7.84265 34984 ft 460 kts 157°
2026-04-29 15:34 42.23725 7.87812 34976 ft 460 kts 157°
2026-04-29 15:34 42.17890 7.91350 34980 ft 460 kts 157°
2026-04-29 15:35 42.12054 7.94882 34977 ft 459 kts 157°
2026-04-29 15:35 42.06258 7.98384 34980 ft 458 kts 158°
2026-04-29 15:36 42.00439 8.01887 34981 ft 457 kts 159°
2026-04-29 15:36 41.94349 8.04063 34979 ft 452 kts 175°
2026-04-29 15:37 41.88102 8.04970 34970 ft 451 kts 175°
2026-04-29 15:37 41.81863 8.05879 34976 ft 450 kts 175°
2026-04-29 15:38 41.75671 8.06831 34977 ft 450 kts 175°
2026-04-29 15:38 41.69452 8.07807 34974 ft 449 kts 174°
2026-04-29 15:39 41.63248 8.08783 34975 ft 449 kts 174°
2026-04-29 15:39 41.57042 8.09755 34975 ft 448 kts 174°
2026-04-29 15:40 41.50847 8.10722 34975 ft 448 kts 174°
2026-04-29 15:40 41.45705 8.11524 34975 ft 447 kts 174°
2026-04-29 15:41 41.39523 8.12486 34971 ft 446 kts 174°
2026-04-29 15:41 41.33357 8.13444 34966 ft 445 kts 174°
2026-04-29 15:42 41.27202 8.14398 34966 ft 444 kts 175°
2026-04-29 15:42 41.21063 8.15348 34963 ft 444 kts 175°
2026-04-29 15:43 41.15104 8.17253 34968 ft 446 kts 159°
2026-04-29 15:43 41.09679 8.21298 34966 ft 449 kts 149°
2026-04-29 15:44 41.04235 8.25311 34961 ft 447 kts 156°
2026-04-29 15:44 40.98601 8.28813 34956 ft 447 kts 157°
2026-04-29 15:45 40.92960 8.32296 34953 ft 447 kts 156°
2026-04-29 15:45 40.87340 8.35838 34944 ft 448 kts 156°
2026-04-29 15:46 40.81729 8.39411 34952 ft 448 kts 156°
2026-04-29 15:46 40.76151 8.42966 34964 ft 448 kts 156°
2026-04-29 15:47 40.70529 8.46541 34952 ft 449 kts 156°
2026-04-29 15:47 40.64896 8.50116 34950 ft 449 kts 156°
2026-04-29 15:48 40.59260 8.53685 34948 ft 449 kts 157°
2026-04-29 15:48 40.53616 8.57252 34955 ft 450 kts 157°
2026-04-29 15:49 40.47969 8.60814 34956 ft 451 kts 157°
2026-04-29 15:49 40.42310 8.64377 34952 ft 451 kts 157°
2026-04-29 15:50 40.36649 8.67935 34952 ft 451 kts 157°
2026-04-29 15:50 40.30982 8.71490 34954 ft 451 kts 157°
2026-04-29 15:51 40.25350 8.75016 34953 ft 451 kts 157°
2026-04-29 15:51 40.19682 8.78558 34953 ft 452 kts 157°
2026-04-29 15:52 40.14007 8.82098 34953 ft 452 kts 157°
2026-04-29 15:52 40.08332 8.85631 34960 ft 452 kts 158°
2026-04-29 15:53 40.02658 8.89157 34957 ft 452 kts 158°
2026-04-29 15:53 39.96970 8.92685 34958 ft 453 kts 158°
2026-04-29 15:54 39.91267 8.96216 34962 ft 454 kts 158°
2026-04-29 15:54 39.85564 8.99741 34965 ft 453 kts 158°
2026-04-29 15:55 39.79860 9.03260 34956 ft 454 kts 158°
2026-04-29 15:55 39.74184 9.06755 34971 ft 454 kts 158°
2026-04-29 15:56 39.68468 9.10268 34956 ft 455 kts 158°
2026-04-29 15:56 39.62741 9.13780 34975 ft 455 kts 159°
2026-04-29 15:57 39.57011 9.17289 34975 ft 455 kts 159°
2026-04-29 15:57 39.51280 9.20793 34977 ft 456 kts 159°
2026-04-29 15:58 39.45544 9.24292 34978 ft 456 kts 159°
2026-04-29 15:58 39.39800 9.27791 34975 ft 456 kts 159°
2026-04-29 15:59 39.34091 9.31261 34968 ft 456 kts 159°
2026-04-29 15:59 39.28348 9.34746 34972 ft 456 kts 160°
2026-04-29 16:00 39.22597 9.38229 34982 ft 456 kts 160°
2026-04-29 16:00 39.16845 9.41706 34974 ft 457 kts 161°
2026-04-29 16:01 39.11081 9.45186 34986 ft 458 kts 160°
2026-04-29 16:01 39.05301 9.48668 34982 ft 459 kts 160°
2026-04-29 16:02 38.99493 9.52161 34977 ft 460 kts 160°
2026-04-29 16:02 38.93677 9.55655 34959 ft 462 kts 162°
2026-04-29 16:03 38.87802 9.58732 34974 ft 453 kts 172°
2026-04-29 16:03 38.81683 9.60679 34970 ft 453 kts 174°
2026-04-29 16:04 38.75535 9.62575 34971 ft 456 kts 173°
2026-04-29 16:04 38.69367 9.64541 34952 ft 456 kts 173°
2026-04-29 16:05 38.63211 9.66537 34957 ft 456 kts 173°
2026-04-29 16:05 38.57074 9.68530 34952 ft 455 kts 173°
2026-04-29 16:06 38.50946 9.70512 34951 ft 453 kts 173°
2026-04-29 16:06 38.44836 9.72484 34939 ft 452 kts 173°
2026-04-29 16:07 38.38746 9.74445 34944 ft 450 kts 173°
2026-04-29 16:07 38.32683 9.76394 34944 ft 449 kts 173°
2026-04-29 16:08 38.26634 9.78336 34944 ft 448 kts 173°
2026-04-29 16:08 38.20600 9.80278 34930 ft 447 kts 173°
2026-04-29 16:09 38.14615 9.82213 34941 ft 446 kts 173°
2026-04-29 16:09 38.08586 9.84157 34937 ft 447 kts 173°
2026-04-29 16:10 38.02539 9.86103 34948 ft 449 kts 173°
2026-04-29 16:10 37.96466 9.88054 34947 ft 451 kts 173°
2026-04-29 16:11 37.90367 9.90010 34947 ft 453 kts 173°
2026-04-29 16:11 37.84238 9.91973 34942 ft 455 kts 173°
2026-04-29 16:12 37.78096 9.93938 34939 ft 456 kts 173°
2026-04-29 16:12 37.71983 9.95886 34927 ft 456 kts 174°
2026-04-29 16:13 37.65819 9.97836 34930 ft 456 kts 174°
2026-04-29 16:13 37.59666 9.99780 34940 ft 455 kts 174°
2026-04-29 16:14 37.53525 10.01717 34937 ft 455 kts 174°
2026-04-29 16:14 37.47384 10.03653 34941 ft 454 kts 174°
2026-04-29 16:15 37.41258 10.05580 34936 ft 453 kts 174°
2026-04-29 16:15 37.35178 10.07490 34934 ft 453 kts 174°
2026-04-29 16:16 37.29060 10.09408 34942 ft 452 kts 174°
2026-04-29 16:16 37.22955 10.11319 34924 ft 452 kts 174°
2026-04-29 16:17 37.16849 10.13227 34931 ft 451 kts 174°
2026-04-29 16:17 37.10750 10.15130 34943 ft 451 kts 174°
2026-04-29 16:18 37.04650 10.17030 34942 ft 452 kts 174°
2026-04-29 16:18 36.98548 10.18928 34939 ft 452 kts 174°
2026-04-29 16:19 36.92413 10.20823 34519 ft 458 kts 175°
2026-04-29 16:19 36.89345 10.21639 33980 ft 454 kts 177°
2026-04-29 16:19 36.86250 10.22390 33232 ft 454 kts 178°
2026-04-29 16:19 36.83136 10.23111 32431 ft 456 kts 178°
2026-04-29 16:20 36.79999 10.23826 31609 ft 459 kts 178°
2026-04-29 16:20 36.76848 10.24544 30815 ft 461 kts 177°
2026-04-29 16:20 36.73691 10.25268 30083 ft 462 kts 176°
2026-04-29 16:20 36.70528 10.25998 29149 ft 463 kts 176°
2026-04-29 16:21 36.67346 10.26735 28188 ft 466 kts 175°
2026-04-29 16:21 36.64166 10.27474 27462 ft 464 kts 175°
2026-04-29 16:21 36.61012 10.28210 26874 ft 458 kts 175°
2026-04-29 16:21 36.57891 10.28939 26269 ft 454 kts 175°
2026-04-29 16:22 36.54789 10.29660 25623 ft 451 kts 174°
2026-04-29 16:22 36.51708 10.30374 24925 ft 450 kts 174°
2026-04-29 16:22 36.48632 10.31085 24267 ft 449 kts 174°
2026-04-29 16:22 36.45570 10.31793 23702 ft 444 kts 174°
2026-04-29 16:23 36.42568 10.32489 22873 ft 435 kts 173°
2026-04-29 16:23 36.39598 10.33176 21862 ft 431 kts 173°
2026-04-29 16:23 36.36698 10.33845 20930 ft 427 kts 173°
2026-04-29 16:23 36.33794 10.34514 20068 ft 421 kts 173°
2026-04-29 16:24 36.30938 10.35173 19371 ft 412 kts 173°
2026-04-29 16:24 36.28181 10.35810 19102 ft 392 kts 173°
2026-04-29 16:24 36.25566 10.36417 18873 ft 374 kts 173°
2026-04-29 16:24 36.23051 10.36997 18589 ft 360 kts 173°
2026-04-29 16:25 36.20642 10.37552 18408 ft 344 kts 174°
2026-04-29 16:25 36.18329 10.38083 18117 ft 333 kts 174°
2026-04-29 16:25 36.16088 10.38596 17812 ft 323 kts 174°
2026-04-29 16:25 36.13900 10.39096 17416 ft 316 kts 174°
2026-04-29 16:26 36.11748 10.39586 16903 ft 314 kts 174°
2026-04-29 16:26 36.09602 10.40074 16388 ft 313 kts 174°
2026-04-29 16:26 36.07466 10.40560 15896 ft 311 kts 174°
2026-04-29 16:26 36.05343 10.41045 15423 ft 309 kts 174°
2026-04-29 16:27 36.03949 10.41363 15117 ft 307 kts 173°
2026-04-29 16:27 36.01861 10.41840 14704 ft 303 kts 173°
2026-04-29 16:27 35.99791 10.42313 14253 ft 301 kts 173°
2026-04-29 16:27 35.97737 10.42782 13802 ft 300 kts 173°
2026-04-29 16:28 35.95691 10.43054 13223 ft 294 kts 188°
2026-04-29 16:28 35.92996 10.42247 11850 ft 309 kts 202°
2026-04-29 16:28 35.91599 10.41658 11178 ft 317 kts 202°
2026-04-29 16:28 35.89494 10.40740 10368 ft 322 kts 203°
2026-04-29 16:29 35.87351 10.39792 9328 ft 332 kts 202°
2026-04-29 16:29 35.85162 10.38807 8303 ft 338 kts 202°
2026-04-29 16:29 35.82972 10.37803 7323 ft 343 kts 203°
2026-04-29 16:29 35.80727 10.36764 6345 ft 346 kts 203°
2026-04-29 16:30 35.78458 10.35731 5337 ft 349 kts 199°
2026-04-29 16:30 35.76040 10.35348 4304 ft 355 kts 176°
2026-04-29 16:30 35.73664 10.36109 3463 ft 354 kts 154°
2026-04-29 16:30 35.71746 10.37862 3255 ft 332 kts 139°
2026-04-29 16:31 35.70200 10.39830 3077 ft 312 kts 124°
2026-04-29 16:31 35.69417 10.42213 2976 ft 293 kts 98°
2026-04-29 16:31 35.69428 10.44617 2960 ft 271 kts 82°
2026-04-29 16:31 35.69678 10.46833 2957 ft 252 kts 81°
2026-04-29 16:32 35.69924 10.48912 2968 ft 237 kts 80°
2026-04-29 16:32 35.70179 10.50847 2949 ft 220 kts 79°
2026-04-29 16:32 35.70460 10.52619 2937 ft 202 kts 77°
2026-04-29 16:32 35.70767 10.54212 2935 ft 182 kts 75°
2026-04-29 16:33 35.71432 10.57099 2714 ft 175 kts 72°
2026-04-29 16:33 35.71759 10.58482 2545 ft 163 kts 74°
2026-04-29 16:33 35.72075 10.59814 2307 ft 158 kts 75°
2026-04-29 16:34 35.72378 10.61088 2099 ft 153 kts 76°
2026-04-29 16:34 35.72675 10.62341 1886 ft 153 kts 77°
2026-04-29 16:34 35.72968 10.63568 1733 ft 149 kts 78°
2026-04-29 16:34 35.73257 10.64797 1497 ft 149 kts 75°
2026-04-29 16:35 35.73545 10.66011 1289 ft 148 kts 76°
2026-04-29 16:35 35.73834 10.67227 1092 ft 149 kts 78°
2026-04-29 16:35 35.74116 10.68421 918 ft 142 kts 78°
2026-04-29 16:35 35.74389 10.69563 751 ft 137 kts 75°
2026-04-29 16:36 35.74664 10.70705 571 ft 141 kts 77°
2026-04-29 16:36 35.74940 10.71862 334 ft 141 kts 73°
2026-04-29 16:36 35.75216 10.72995 195 ft 140 kts 76°
2026-04-29 16:36 35.75481 10.74125 30 ft 134 kts 76°
2026-04-29 16:37 35.75720 10.75134 13 ft 107 kts 73°
2026-04-29 16:37 35.75885 10.75827 11 ft 62 kts 74°
2026-04-29 16:37 35.75964 10.76156 9 ft 18 kts 73°
2026-04-29 16:37 35.75997 10.76231 10 ft 14 kts 44°
2026-04-29 16:38 35.76084 10.76231 11 ft 8 kts 343°
2026-04-29 16:38 35.76125 10.76197 9 ft 7 kts 302°
2026-04-29 16:38 35.76131 10.76136 9 ft 8 kts 258°
2026-04-29 16:38 35.76113 10.76061 9 ft 10 kts 253°
2026-04-29 16:39 35.76087 10.75977 10 ft 10 kts 232°
2026-04-29 16:39 35.76049 10.75911 9 ft 9 kts 251°
2026-04-29 16:39 35.76030 10.75832 9 ft 11 kts 253°
2026-04-29 16:39 35.76005 10.75728 11 ft 13 kts 254°
2026-04-29 16:40 35.75980 10.75623 10 ft 13 kts 253°
2026-04-29 16:40 35.75958 10.75528 9 ft 3 kts 254°
2026-04-29 16:40 35.75961 10.75505 9 ft 3 kts 307°
2026-04-29 16:40 35.75979 10.75495 10 ft 3 kts 339°
2026-04-29 16:41 35.75998 10.75487 9 ft 3 kts 344°
2026-04-29 16:41 35.76015 10.75481 11 ft 1 kts 344°
2026-04-29 16:41 35.76016 10.75481 11 ft 0 kts 343°